伽利略0225星导航星座 (GSAT0225 (GALILEO 29))

导读

GALILEO 29 (10C)是欧洲空间局(ESA)推出的伽利略导航系统卫星,于2024年4月28日发射升空。该卫星旨在补充、完善伽利略全球卫星导航系统的星座布局,提升系统定位精度、可靠性与全球覆盖能力,为民用、商用等领域提供独立且高精度的定位导航授时服务,进一步巩固欧洲在全球卫星导航领域的自主地位。

基本信息
目录编号:
59598
目录名称:
GALILEO 29 (10C)
国际标识:
2024-079A
轨道中心:
EARTH
卫星名称:
伽利略0225星
卫星全名:
伽利略0225星导航星座 (GSAT0225 (GALILEO 29))
卫星状态:
在轨 (已飞行866 天)
发射日期:
2024-04-28 UTC
国别 :
(ESA)
星等 :
--
该卫星已列入 空间交会检测服务 Space Conjunction Data Service (SCDS) ,当前飞行风险评估等级: 无高风险
轨道信息
数据来源 国际轨道数据 AOE轨道数据
星历时间 2026-09-09T21:55:39+0800
1天前
查看轨道信息
2026-09-06T13:00:00+0800
5天前
查看轨道信息
半长轴 29600.332km 29600.332km
偏心率 0.0001346 0.0001103
轨道倾角 55.174° 55.171°
近地点辐角 118.279° 114.331°
升交点赤经 98.720° 98.815°
平近点角 61.392° 155.883°
近地点 23218.21km 23218.93km
远地点 23226.18km 23225.46km
周期 844.704分钟 844.704分钟
每日圈数 1.704739 1.704739
详细信息
平衡模式:
三轴稳定
覆盖范围:
全球
运营商:
欧盟空间计划局
运营商所在国:
法国大都会
使用方式:
暂无
卫星简介
伽利略定位系统(Galileo)是一个全球导航卫星系统,于2016年投入使用由欧盟通过ESA创建,由欧盟空间计划局(EUSPA)运营。该系统有两个地面操控站,并且在高纬度地区提供比其他系统更好的定位服务。该卫星仍在工作。
2D轨道图
3D轨道图
轨道高度分析图
轨道倾角分析图
轨道综合分析图
查看轨道综合分析图
与全量物体交会距离演化趋势
与全量物体交会风险概率演化趋势